Hourly Weather Holoven'ky

Today, 16 April, Friday

Time Temperature Precipitation Wind Pressure Humidity
00:00 +9°C° 0.3 mm 2 mps 746 mmHg 83%
01:00 +9°C° 0.3 mm 2 mps 746 mmHg 87%
02:00 +8°C° 0 mm 3 mps 745 mmHg 91%
03:00 +8°C° 1.4 mm 3 mps 745 mmHg 92%
04:00 +8°C° 1.4 mm 3 mps 745 mmHg 93%
05:00 +8°C° 1.4 mm 3 mps 745 mmHg 94%
06:00 +7°C° 0.8 mm 4 mps 746 mmHg 92%
07:00 +7°C° 0.8 mm 4 mps 746 mmHg 90%
08:00 +7°C° 0 mm 5 mps 746 mmHg 89%
09:00 +7°C° 0.3 mm 5 mps 746 mmHg 86%
10:00 +8°C° 0.3 mm 5 mps 747 mmHg 83%
11:00 +8°C° 0.3 mm 6 mps 747 mmHg 80%
12:00 +9°C° 0.1 mm 5 mps 747 mmHg 78%
13:00 +9°C° 0.1 mm 5 mps 747 mmHg 76%
14:00 +11°C° 0.1 mm 4 mps 747 mmHg 73%
15:00 +11°C° 0.3 mm 4 mps 747 mmHg 74%
16:00 +10°C° 0.3 mm 4 mps 747 mmHg 75%
17:00 +10°C° 0.3 mm 4 mps 747 mmHg 76%
18:00 +8°C° 0.2 mm 4 mps 747 mmHg 80%
19:00 +8°C° 0.2 mm 3 mps 748 mmHg 85%
20:00 +7°C° 0.2 mm 3 mps 748 mmHg 89%
21:00 +7°C° 0 mm 2 mps 748 mmHg 90%
22:00 +6°C° 0 mm 2 mps 748 mmHg 91%
23:00 +5°C° 0 mm 2 mps 749 mmHg 92%

Tomorrow, 17 April, Saturday

Time Temperature Precipitation Wind Pressure Humidity
00:00 +5°C° 0.1 mm 2 mps 749 mmHg 92%
01:00 +5°C° 0.1 mm 2 mps 749 mmHg 92%
02:00 +5°C° 0.1 mm 2 mps 749 mmHg 92%
03:00 +4°C° 0.1 mm 2 mps 749 mmHg 91%
04:00 +4°C° 0.1 mm 2 mps 750 mmHg 91%
05:00 +4°C° 0.1 mm 2 mps 750 mmHg 90%
06:00 +5°C° 0 mm 2 mps 750 mmHg 85%
07:00 +5°C° 0 mm 2 mps 750 mmHg 80%
08:00 +5°C° 0 mm 3 mps 751 mmHg 74%
09:00 +7°C° 0 mm 2 mps 751 mmHg 71%
10:00 +8°C° 0 mm 2 mps 751 mmHg 67%
11:00 +9°C° 0 mm 2 mps 751 mmHg 64%
12:00 +9°C° 0 mm 2 mps 751 mmHg 63%
13:00 +9°C° 0 mm 2 mps 751 mmHg 62%
14:00 +9°C° 0 mm 2 mps 751 mmHg 61%
15:00 +9°C° 0 mm 2 mps 751 mmHg 63%
16:00 +9°C° 0 mm 2 mps 751 mmHg 64%
17:00 +9°C° 0 mm 2 mps 751 mmHg 66%
18:00 +8°C° 0 mm 2 mps 751 mmHg 71%
19:00 +7°C° 0 mm 2 mps 751 mmHg 75%
20:00 +7°C° 0 mm 2 mps 751 mmHg 79%
21:00 +5°C° 0.2 mm 3 mps 751 mmHg 82%
22:00 +5°C° 0.2 mm 3 mps 750 mmHg 84%
23:00 +5°C° 0.2 mm 3 mps 750 mmHg 86%

Day after tomorrow, 18 April, Sunday

Time Temperature Precipitation Wind Pressure Humidity
00:00 +5°C° 0.5 mm 4 mps 750 mmHg 88%
01:00 +4°C° 0.5 mm 4 mps 750 mmHg 89%
02:00 +3°C° 0.5 mm 5 mps 749 mmHg 91%
03:00 +3°C° 2.5 mm 5 mps 749 mmHg 91%
04:00 +3°C° 2.5 mm 6 mps 748 mmHg 92%
05:00 +3°C° 2.5 mm 6 mps 748 mmHg 92%
06:00 +3°C° 4 mm 6 mps 748 mmHg 93%
07:00 +3°C° 4 mm 7 mps 748 mmHg 93%
08:00 +3°C° 4 mm 7 mps 748 mmHg 93%
09:00 +3°C° 2 mm 7 mps 748 mmHg 93%
10:00 +3°C° 2 mm 6 mps 748 mmHg 93%
11:00 +3°C° 2 mm 6 mps 748 mmHg 93%
12:00 +4°C° 0.6 mm 6 mps 748 mmHg 93%
13:00 +5°C° 0.6 mm 5 mps 748 mmHg 93%
14:00 +5°C° 0.6 mm 5 mps 748 mmHg 92%
15:00 +5°C° 0.2 mm 4 mps 748 mmHg 92%
16:00 +5°C° 0.2 mm 4 mps 748 mmHg 91%
17:00 +5°C° 0.2 mm 3 mps 748 mmHg 91%
18:00 +5°C° 0 mm 3 mps 749 mmHg 92%
19:00 +4°C° 0 mm 3 mps 749 mmHg 93%
20:00 +4°C° 0 mm 3 mps 749 mmHg 94%
21:00 +4°C° 0 mm 3 mps 749 mmHg 95%
22:00 +4°C° 0 mm 3 mps 749 mmHg 95%
23:00 +4°C° 0 mm 3 mps 749 mmHg 96%

19 April, Monday

Time Temperature Precipitation Wind Pressure Humidity
00:00 +4°C° 0 mm 3 mps 749 mmHg 95%
01:00 +4°C° 0 mm 3 mps 749 mmHg 95%
02:00 +4°C° 0 mm 3 mps 749 mmHg 95%
03:00 +4°C° 0 mm 3 mps 749 mmHg 95%
04:00 +5°C° 0 mm 2 mps 749 mmHg 94%
05:00 +5°C° 0 mm 2 mps 749 mmHg 94%
06:00 +5°C° 0 mm 2 mps 749 mmHg 90%
07:00 +6°C° 0 mm 2 mps 749 mmHg 86%
08:00 +7°C° 0 mm 2 mps 749 mmHg 82%
09:00 +8°C° 0 mm 2 mps 749 mmHg 75%
10:00 +9°C° 0 mm 2 mps 749 mmHg 68%
11:00 +10°C° 0 mm 2 mps 749 mmHg 61%
12:00 +12°C° 0 mm 2 mps 749 mmHg 59%
13:00 +13°C° 0 mm 2 mps 749 mmHg 57%
14:00 +14°C° 0 mm 2 mps 748 mmHg 55%
15:00 +13°C° 0.1 mm 2 mps 748 mmHg 57%
16:00 +13°C° 0.1 mm 2 mps 748 mmHg 59%
17:00 +13°C° 0.1 mm 1 mps 747 mmHg 61%
18:00 +12°C° 0.2 mm 2 mps 747 mmHg 69%
19:00 +10°C° 0.2 mm 3 mps 747 mmHg 77%
20:00 +8°C° 0.2 mm 4 mps 747 mmHg 85%
21:00 +9°C° 0 mm 3 mps 746 mmHg 87%
22:00 +8°C° 0 mm 3 mps 746 mmHg 89%
23:00 +8°C° 0 mm 3 mps 745 mmHg 91%

20 April, Tuesday

Time Temperature Precipitation Wind Pressure Humidity
00:00 +8°C° 0 mm 3 mps 744 mmHg 92%
01:00 +8°C° 0 mm 3 mps 743 mmHg 93%
02:00 +7°C° 0 mm 4 mps 743 mmHg 94%
03:00 +7°C° 0.1 mm 4 mps 741 mmHg 94%
04:00 +7°C° 0.1 mm 5 mps 740 mmHg 95%
05:00 +7°C° 0.1 mm 5 mps 739 mmHg 95%
06:00 +7°C° 1.4 mm 5 mps 738 mmHg 96%
07:00 +7°C° 1.4 mm 5 mps 737 mmHg 96%
08:00 +7°C° 1.4 mm 6 mps 735 mmHg 96%
09:00 +7°C° 1.9 mm 5 mps 735 mmHg 96%
10:00 +8°C° 1.9 mm 4 mps 734 mmHg 95%
11:00 +8°C° 1.9 mm 4 mps 733 mmHg 95%
12:00 +8°C° 0.4 mm 4 mps 733 mmHg 93%
13:00 +8°C° 0.4 mm 4 mps 732 mmHg 91%
14:00 +10°C° 0.4 mm 4 mps 732 mmHg 89%
15:00 +8°C° 0.4 mm 4 mps 732 mmHg 91%
16:00 +8°C° 0.4 mm 5 mps 733 mmHg 92%
17:00 +7°C° 0.4 mm 5 mps 733 mmHg 93%
18:00 +6°C° 0.6 mm 5 mps 734 mmHg 93%
19:00 +5°C° 0.6 mm 6 mps 735 mmHg 92%
20:00 +4°C° 0.6 mm 6 mps 735 mmHg 91%
21:00 +4°C° 0.2 mm 6 mps 736 mmHg 91%
22:00 +5°C° 0.2 mm 6 mps 737 mmHg 91%
23:00 +5°C° 0.2 mm 6 mps 737 mmHg 90%

21 April, Wednesday

Time Temperature Precipitation Wind Pressure Humidity
00:00 +5°C° 0 mm 6 mps 738 mmHg 89%
01:00 +4°C° 0 mm 6 mps 739 mmHg 87%
02:00 +4°C° 0 mm 6 mps 739 mmHg 86%
03:00 +4°C° 0 mm 6 mps 740 mmHg 87%
04:00 +3°C° 0 mm 6 mps 741 mmHg 88%
05:00 +3°C° 0 mm 6 mps 741 mmHg 90%
06:00 +3°C° 0 mm 7 mps 742 mmHg 88%
07:00 +4°C° 0 mm 7 mps 742 mmHg 85%
08:00 +5°C° 0 mm 7 mps 743 mmHg 83%
09:00 +6°C° 0.1 mm 8 mps 743 mmHg 78%
10:00 +7°C° 0.1 mm 8 mps 744 mmHg 72%
11:00 +9°C° 0.1 mm 8 mps 744 mmHg 67%
12:00 +9°C° 0.1 mm 8 mps 745 mmHg 66%
13:00 +10°C° 0.1 mm 8 mps 745 mmHg 65%
14:00 +10°C° 0.1 mm 7 mps 746 mmHg 64%
15:00 +10°C° 0.1 mm 7 mps 746 mmHg 65%
16:00 +10°C° 0.1 mm 6 mps 747 mmHg 65%
17:00 +10°C° 0.1 mm 6 mps 747 mmHg 65%
18:00 +9°C° 0 mm 5 mps 748 mmHg 71%
19:00 +8°C° 0 mm 4 mps 748 mmHg 77%
20:00 +7°C° 0 mm 3 mps 749 mmHg 82%
21:00 +7°C° 0 mm 3 mps 749 mmHg 84%
22:00 +7°C° 0 mm 3 mps 750 mmHg 85%
23:00 +5°C° 0 mm 3 mps 750 mmHg 86%
Show more